Voltar ao catálogo

FENGYUN 1C DEB

AtivoSSO
NORAD 30717·DEBRIS·🇨🇳 China

Lançado May 10, 1999 de Taiyuan Satellite Launch Center

Loading…

Próximas Passagens (próximas 24 horas)

TLE

AtualizadoSource: Space-Track

Época: Sep 14, 2026, 03:45 UTC

1 30717U 99025ASB 26257.15675884  .00001768  00000-0  81192-3 0  9995
2 30717  99.0040 338.4461 0047915 188.6051 171.4309 14.21977650  4412

Acompanhe FENGYUN 1C DEB em tempo real com AllMySat

Download on the App Store